USA 153

Last updated on Jan. 26, 2020, 4:40 a.m. UTC

1 26575U 00065A   20025.43939453 -.00000333  00000-0  00000-0 0  9995
2 26575   7.6624  50.6995 0001556 250.1010 115.8585  1.00277326  8203
UTC
Height (km)
Latitude
Longitude
Inclination
Orbital Period
UTC large
Height (km)
Speed (km/s)
/
Latitude / Longitude
Inclination (degrees)
Orbital Period (minutes)
Azimuth
Elevation
Range (km)
Doppler Factor
iOS Compass Heading
iOS Angle

Next 30 passes for location: Hong Kong

Rise time Rise Azimuth (degrees) Set time Set Azimuth (degrees) Duration Max altitude (degrees)

No matching passes for this satellites